Showing default

KUIPER-00386, 68921

Orbit data source: Space-Track

KUIPER-00386, 68921 is a payload satellite owned by Kuiper Systems (US) in LEO that was launched on Thu, 30 Apr 2026 UTC via an ARIANE 64 launch vehicle from the French Guiana (FRGUI). Payload-class satellites include a variety of spacecraft equipped with specific instruments for various scientific and technological missions. These include communications satellites like Starlink; space stations such as the ISS; scientific satellites like the Hubble; Earth observation satellites from companies like Planet Labs, Umbra, and HawkEye 360; GPS; miniature CubeSats for education and research; and military/defense satellites.

Loading next visibility...
Identifier
68921, 2026-098C
Orbit
LEO
Country
Flag of USUS
Related business
Manufacturer
Kuiper Systems
Mission
Operational spacecraft
Bus & Motor
KUIPER, Unknown motor
Mass
~490 kg wet, ~490 kg dry
Launch date (UTC)
2026-04-30 (1 month ago)
Launch vehicle
ARIANE 64
Launch site
French Guiana (FRGUI)
Object type
Payload
Rocket body
Debris
Shape & HBR
Unknown
Radar Cross Section
Large (>1 m²)

Expand to show TLE details & history
Last TLE update: 3 days ago

TLE from 3 days ago
0 KUIPER-00386
1 68921U 26098C   26155.12912967  .00018008  00000-0  52143-3 0  9992
2 68921  51.8739 130.4864 0003336 125.6593 234.4704 15.35639073  5341
Epoch: 2026-06-04T03:05Z
TLE epoch observation values (Epoch: 2026-06-04T03:05:56.803Z)
Latitude
-0.00002°
Longitude
-168.57812°
Altitude
461.111 km
Speed
7.637 km/s
True Right ascension
08h 41m 56s
True Declination
0° 00' 00"
Sunlit
Object was in daylight at epoch
Visualization orbit readout
Latitude
Unknown
Longitude
Unknown
Altitude
Unknown
Speed
Unknown
Apparent Right ascension
Unknown
Apparent Declination
Unknown
Sunlit
N/A
Visualization observer readout
Local Sidereal Time
03:01:34
Azimuth
Unknown
Elevation
Unknown
Doppler factor
Unknown
Orbital elements
Apogee altitude
461.77 km
Perigee altitude
457.208 km
Semi-major axis
6,837.626 km
Eccentricity
0.00033
Inclination
51.8739°
RAAN
130.4864°
Arg. of periapsis
125.6593°
True anomaly
234.4393°
Mean anomaly
234.4704°
Eccentric anomaly
234.45485°
Mean motion
3.83871 °/min
Orbital period
93.78 mins
BSTAR
0.00052143
Loading maneuver chart data...
Computing Atmospheric mass density...
Loading historical data...
Loading historical data...
Loading historical data...
Loading historical data...
Loading historical data...
Loading historical data...
Loading historical data...

Documentation

Showing up to 5 results
|